Hourly Data Report for April 16, 2003

TORONTO CITY
ONTARIO

43°40'00.000" N
79°24'00.000" W
112.50 m
6158355
71508
XTO

Download Data

Hourly Data (April 2003)
Hourly Data Report for April 16, 2003
TIME
LST
Temp Definition
°C
Dew Point Definition
°C
Rel Hum Definition
%
Precip. Amount Definition
mm

Wind Dir Definition
10's deg

Wind Spd Definition
km/h
Visibility Definition
km
Stn Press Definition
kPa
Hmdx Definition


Wind Chill Definition


Weather Definition


00:00 20.0 6.5 41   LegendMM LegendMM LegendMM 99.37     LegendNANA
01:00 16.1 7.8 58   LegendMM LegendMM LegendMM 99.34     LegendNANA
02:00 14.8 7.1 60   LegendMM LegendMM LegendMM 99.36     LegendNANA
03:00 12.5 6.3 66   LegendMM LegendMM LegendMM 99.43     LegendNANA
04:00 11.1 6.1 71   LegendMM LegendMM LegendMM 99.53     LegendNANA
05:00 9.3 5.5 77   LegendMM LegendMM LegendMM 99.58     LegendNANA
06:00 8.3 5.5 83   LegendMM LegendMM LegendMM 99.71     LegendNANA
07:00 8.3 5.9 85   LegendMM LegendMM LegendMM 99.80     LegendNANA
08:00 8.5 5.0 79   LegendMM LegendMM LegendMM 99.94     LegendNANA
09:00 8.1 2.9 70   LegendMM LegendMM LegendMM 100.06     LegendNANA
10:00 8.5 1.1 60   LegendMM LegendMM LegendMM 100.19     LegendNANA
11:00 8.1 0.0 57   LegendMM LegendMM LegendMM 100.34     LegendNANA
12:00 7.7 -0.6 56   LegendMM LegendMM LegendMM 100.40     LegendNANA
13:00 6.2 -2.1 55   LegendMM LegendMM LegendMM 100.52     LegendNANA
14:00 6.7 -1.1 57   LegendMM LegendMM LegendMM 100.56     LegendNANA
15:00 5.1 0.1 70   LegendMM LegendMM LegendMM 100.62     LegendNANA
16:00 3.7 -4.5 55   LegendMM LegendMM LegendMM 100.74     LegendNANA
17:00 2.9 -6.0 52   LegendMM LegendMM LegendMM 100.81     LegendNANA
18:00 2.4 -4.6 60   LegendMM LegendMM LegendMM 100.85     LegendNANA
19:00 2.3 -4.9 59   LegendMM LegendMM LegendMM 100.89     LegendNANA
20:00 2.5 -4.5 60   LegendMM LegendMM LegendMM 100.97     LegendNANA
21:00 2.6 -5.7 54   LegendMM LegendMM LegendMM 101.00     LegendNANA
22:00 2.6 -8.1 45   LegendMM LegendMM LegendMM 101.08     LegendNANA
23:00 2.0 -8.3 46   LegendMM LegendMM LegendMM 101.07     LegendNANA

Notes on Data Quality.

Legend

  • E = Estimated
  • M = Missing
  • NA = Not Available*
  • [empty] = Indicates an unobserved value
Date modified: